Date String (YYYY-MM-DD hh:mm:ss) UTC,Instrument flags,absolute air pressure of the measurement (hPa),sample flow rate (lpm),inlet stack bypass flow (lpm),air temperature of the measurement (°C),ambient temperature measured by the external sensor (°C),aerosol sample conditioner tube jacket temperature (°C),OPC LED temperature (°C),internal box temperature (°C),relative humidity of the measurement (%),span deviation,mass concentration of particles derived from Lorenz-Mie calculation of OPC scattering (μg/m³),mass concentration of particles derived from Lorenz-Mie calculation of OPC scattering (μg/m³),mass concentration of particles derived from Lorenz-Mie calculation of OPC scattering (μg/m³)
DateTimeUTC,F1_M11,P_M11,Q1_M11,Q2_M11,T1_M11,T2_M11,T3_M11,T4_M11,T5_M11,U1_M11,ZSPAN_M11,X0_M11,X2_M11,X1_M11
2023-09-05 10:00:00,SystemResetWarning,0828.4,5.01,000.00,028.3,024.6,000.0,036.8,029.3,23.2,0000.0,0004.57,0001.43,0000.86
2023-09-05 10:01:00,SystemResetWarning,0828.4,5.01,000.00,028.2,024.9,000.0,036.8,029.4,23.2,0000.0,0004.59,0001.43,0000.86
2023-09-05 10:02:00,SystemResetWarning,0828.5,5.00,000.00,028.2,025.3,000.0,036.8,029.5,23.2,0000.0,0004.80,0001.48,0000.85
2023-09-05 10:03:00,SystemResetWarning,0828.6,5.00,000.00,028.2,025.6,000.0,036.7,029.5,23.2,0000.0,0005.21,0001.47,0000.85
2023-09-05 10:04:00,SystemResetWarning,0828.6,5.00,000.00,028.2,025.9,000.0,036.7,029.6,23.0,0000.0,0004.94,0001.40,0000.85
2023-09-05 10:05:00,SystemResetWarning,0828.6,5.01,000.00,028.2,026.2,000.0,036.7,029.6,23.0,0000.0,0005.06,0001.41,0000.85
2023-09-05 10:06:00,SystemResetWarning,0828.6,5.01,000.00,028.2,026.3,000.0,036.7,029.7,23.2,0000.0,0005.61,0001.44,0000.86
2023-09-05 10:07:00,SystemResetWarning,0828.6,5.00,000.00,028.2,026.5,000.0,036.7,029.7,23.2,0000.0,0004.30,0001.45,0000.87
2023-09-05 10:08:00,SystemResetWarning,0828.6,5.00,000.00,028.2,026.6,000.0,036.7,029.8,23.1,0000.0,0004.40,0001.48,0000.87
2023-09-05 10:09:00,SystemResetWarning,0828.6,5.00,000.00,028.3,026.8,000.0,036.7,029.8,22.9,0000.0,0004.34,0001.45,0000.86
2023-09-05 10:10:00,SystemResetWarning,0828.6,5.00,000.00,028.3,026.9,000.0,036.7,029.9,22.7,0000.0,0004.88,0001.40,0000.86
2023-09-05 10:11:00,SystemResetWarning,0828.6,5.00,000.00,028.3,027.0,000.0,036.7,029.9,22.5,0000.0,0005.40,0001.34,0000.85
2023-09-05 10:12:00,SystemResetWarning,0828.6,5.00,000.00,028.3,027.1,000.0,036.7,030.0,22.7,0000.0,0005.58,0001.35,0000.84
2023-09-05 10:13:00,SystemResetWarning,0828.7,5.00,000.00,028.3,027.1,000.0,036.7,030.0,22.6,0000.0,0006.06,0001.31,0000.83
2023-09-05 10:14:00,SystemResetWarning,0828.7,5.00,000.00,028.4,027.2,000.0,036.7,030.0,23.0,0000.0,0005.68,0001.34,0000.84
2023-09-05 10:15:00,SystemResetWarning,0828.8,5.00,000.00,028.4,027.2,000.0,036.7,030.0,23.0,0000.0,0005.98,0001.34,0000.84
2023-09-05 10:16:00,SystemResetWarning,0828.7,5.00,000.00,028.4,027.3,000.0,036.8,030.1,22.6,0000.0,0006.02,0001.37,0000.84
2023-09-05 10:17:00,SystemResetWarning,0828.8,4.99,000.00,028.4,027.3,000.0,036.8,030.1,22.5,0000.0,0005.32,0001.32,0000.83
2023-09-05 10:18:00,SystemResetWarning,0828.7,4.99,000.00,028.5,027.3,000.0,036.8,030.1,22.3,0000.0,0004.81,0001.25,0000.82
2023-09-05 10:19:00,SystemResetWarning,0828.8,5.00,000.00,028.5,027.4,000.0,036.8,030.2,22.2,0000.0,0004.58,0001.19,0000.80
2023-09-05 10:20:00,SystemResetWarning,0828.8,5.00,000.00,028.5,027.4,000.0,036.8,030.2,22.3,0000.0,0004.68,0001.17,0000.79
2023-09-05 10:21:00,SystemResetWarning,0828.8,5.00,000.00,028.5,027.4,000.0,036.8,030.2,22.4,0000.0,0004.87,0001.17,0000.80
2023-09-05 10:22:00,SystemResetWarning,0828.9,5.00,000.00,028.6,027.5,000.0,036.8,030.2,22.5,0000.0,0003.83,0001.17,0000.81
2023-09-05 10:23:00,SystemResetWarning,0829.0,5.01,000.00,028.6,027.5,000.0,036.9,030.3,22.6,0000.0,0003.73,0001.17,0000.82
2023-09-05 10:24:00,SystemResetWarning,0829.0,5.00,000.00,028.6,027.5,000.0,036.9,030.3,22.7,0000.0,0003.17,0001.18,0000.83
2023-09-05 10:25:00,SystemResetWarning,0828.9,4.99,000.00,028.6,027.5,000.0,036.9,030.3,22.7,0000.0,0003.39,0001.21,0000.84
2023-09-05 10:26:00,SystemResetWarning,0829.0,4.99,000.00,028.7,027.6,000.0,036.9,030.3,22.6,0000.0,0003.45,0001.26,0000.85
2023-09-05 10:27:00,SystemResetWarning,0829.1,4.99,000.00,028.7,027.6,000.0,036.9,030.3,22.6,0000.0,0004.27,0001.29,0000.86
2023-09-05 10:28:00,SystemResetWarning,0829.1,5.00,000.00,028.7,027.6,000.0,036.9,030.3,22.6,0000.0,0004.52,0001.30,0000.86
2023-09-05 10:29:00,SystemResetWarning,0829.1,5.00,000.00,028.7,027.6,000.0,037.0,030.3,22.6,0000.0,0005.02,0001.38,0000.86
2023-09-05 10:30:00,SystemResetWarning,0829.1,5.00,000.00,028.7,027.2,000.0,037.0,030.3,22.4,0000.0,0005.34,0001.45,0000.87
2023-09-05 10:31:00,SystemResetWarning,0829.1,5.00,000.00,028.6,025.3,000.0,036.9,029.8,22.5,0000.0,0005.40,0001.48,0000.87
2023-09-05 10:32:00,SystemResetWarning,0829.0,5.00,000.00,028.5,024.3,000.0,036.8,029.5,22.7,0000.0,0005.02,0001.50,0000.87
2023-09-05 10:33:00,SystemResetWarning,0829.0,5.01,000.00,028.3,024.3,000.0,036.7,029.3,22.9,0000.0,0004.85,0001.51,0000.87
2023-09-05 10:34:00,SystemResetWarning,0829.0,5.01,000.00,028.2,024.6,000.0,036.7,029.3,23.1,0000.0,0004.88,0001.49,0000.87
2023-09-05 10:35:00,SystemResetWarning,0829.1,4.99,000.00,028.2,025.0,000.0,036.7,029.3,23.1,0000.0,0004.92,0001.50,0000.87
2023-09-05 10:36:00,SystemResetWarning,0829.2,5.00,000.00,028.2,025.3,000.0,036.7,029.4,23.2,0000.0,0004.75,0001.52,0000.86
2023-09-05 10:37:00,SystemResetWarning,0829.3,5.00,000.00,028.1,025.7,000.0,036.7,029.5,23.0,0000.0,0004.64,0001.49,0000.85
2023-09-05 10:38:00,SystemResetWarning,0829.3,5.01,000.00,028.1,025.9,000.0,036.7,029.6,22.9,0000.0,0004.57,0001.48,0000.85
2023-09-05 10:39:00,SystemResetWarning,0829.3,5.00,000.00,028.2,026.2,000.0,036.7,029.6,22.8,0000.0,0004.78,0001.49,0000.85
2023-09-05 10:40:00,SystemResetWarning,0829.3,5.00,000.00,028.2,026.4,000.0,036.7,029.7,22.8,0000.0,0004.43,0001.48,0000.85
2023-09-05 10:41:00,SystemResetWarning,0829.4,5.00,000.00,028.2,026.5,000.0,036.7,029.8,23.1,0000.0,0004.30,0001.42,0000.85
2023-09-05 10:42:00,SystemResetWarning,0829.4,5.01,000.00,028.2,026.7,000.0,036.7,029.8,23.1,0000.0,0004.47,0001.44,0000.85
2023-09-05 10:43:00,SystemResetWarning,0829.4,5.00,000.00,028.2,026.8,000.0,036.7,029.8,23.1,0000.0,0004.59,0001.47,0000.86
2023-09-05 10:44:00,SystemResetWarning,0829.3,4.99,000.00,028.2,026.9,000.0,036.7,029.8,23.1,0000.0,0005.11,0001.47,0000.86
2023-09-05 10:45:00,SystemResetWarning,0829.3,5.00,000.00,028.3,026.9,000.0,036.7,029.8,23.1,0000.0,0005.60,0001.48,0000.86
2023-09-05 10:46:00,SystemResetWarning,0829.4,5.00,000.00,028.3,027.0,000.0,036.7,029.8,22.9,0000.0,0005.68,0001.47,0000.85
2023-09-05 10:47:00,SystemResetWarning,0829.4,5.00,000.00,028.3,027.0,000.0,036.7,029.9,22.8,0000.0,0005.66,0001.42,0000.84
2023-09-05 10:48:00,SystemResetWarning,0829.4,5.00,000.00,028.3,027.1,000.0,036.7,029.9,22.7,0000.0,0005.69,0001.41,0000.82
2023-09-05 10:49:00,SystemResetWarning,0829.4,5.01,000.00,028.3,027.1,000.0,036.7,029.9,22.5,0000.0,0005.10,0001.36,0000.81
2023-09-05 10:50:00,SystemResetWarning,0829.4,5.01,000.00,028.4,027.1,000.0,036.7,030.0,22.4,0000.0,0004.82,0001.32,0000.81
2023-09-05 10:51:00,SystemResetWarning,0829.4,5.00,000.00,028.4,027.2,000.0,036.7,030.0,22.3,0000.0,0005.04,0001.36,0000.82
2023-09-05 10:52:00,SystemResetWarning,0829.4,4.99,000.00,028.4,027.2,000.0,036.7,030.0,22.2,0000.0,0004.90,0001.37,0000.82
2023-09-05 10:53:00,SystemResetWarning,0829.3,4.99,000.00,028.4,027.3,000.0,036.8,030.0,22.2,0000.0,0004.61,0001.34,0000.82
2023-09-05 10:54:00,SystemResetWarning,0829.3,4.99,000.00,028.5,027.3,000.0,036.8,030.1,22.2,0000.0,0004.48,0001.29,0000.81
2023-09-05 10:55:00,SystemResetWarning,0829.3,5.01,000.00,028.5,027.3,000.0,036.8,030.1,22.2,0000.0,0004.87,0001.25,0000.79
2023-09-05 10:56:00,SystemResetWarning,0829.3,5.01,000.00,028.5,027.4,000.0,036.8,030.2,22.0,0000.0,0004.20,0001.24,0000.78
2023-09-05 10:57:00,SystemResetWarning,0829.2,5.01,000.00,028.5,027.4,000.0,036.8,030.1,22.0,0000.0,0003.99,0001.21,0000.77
2023-09-05 10:58:00,SystemResetWarning,0829.3,5.00,000.00,028.5,027.4,000.0,036.8,030.2,21.9,0000.0,0003.95,0001.21,0000.77
2023-09-05 10:59:00,SystemResetWarning,0829.4,5.00,000.00,028.6,027.4,000.0,036.8,030.2,22.1,0000.0,0003.91,0001.19,0000.78
